Location: Bucharest
(44.4268°N, 26.1025°E)
Time: 02:32:20
(UTC+03:00)

EO-79 - Visible Passes

Search period start: 28 June 2022 00:00
Search period end: 08 July 2022 00:00
Orbit: 587 x 605 km, 98.0° (Epoch: 27 June)

Date Brightness Start Highest point End Pass type
(mag) Time Alt. Az. Time Alt. Az. Time Alt. Az.
28 Jun ? 01:54:52 10° NE 01:57:30 16° E 01:58:41 14° ESE visible
28 Jun ? 03:29:18 10° N 03:33:22 48° WNW 03:35:21 27° SW visible
29 Jun ? 02:04:21 10° NE 02:07:30 20° E 02:08:42 18° ESE visible
29 Jun ? 03:39:20 10° N 03:43:14 38° WNW 03:45:22 22° WSW visible
30 Jun ? 02:13:58 10° NE 02:17:29 25° E 02:18:43 22° ESE visible
30 Jun ? 03:49:23 10° N 03:53:06 30° WNW 03:55:23 18° WSW visible
01 Jul ? 02:23:39 10° NNE 02:27:27 32° E 02:28:43 26° SE visible
01 Jul ? 03:59:30 10° NNW 04:02:57 25° WNW 04:05:23 15° WSW visible
02 Jul ? 02:33:24 10° NNE 02:37:25 40° E 02:38:43 31° SE visible
02 Jul ? 04:09:41 10° NNW 04:12:46 20° WNW 04:15:23 12° WSW visible
03 Jul ? 02:43:13 10° NNE 02:47:21 52° E 02:48:43 36° SSE visible
03 Jul ? 04:19:56 10° NNW 04:22:35 16° WNW 04:25:12 10° WSW visible
04 Jul ? 02:53:03 10° NNE 02:57:16 67° ESE 02:58:42 39° S visible
04 Jul ? 04:30:22 10° NNW 04:32:22 13° WNW 04:34:22 10° W visible
05 Jul ? 03:02:55 10° NNE 03:07:11 86° ESE 03:08:41 40° S visible
05 Jul ? 04:41:13 10° NW 04:42:08 11° WNW 04:43:03 10° WNW visible
06 Jul ? 01:40:11 10° ENE 01:40:57 10° E 01:41:43 10° E visible
06 Jul ? 03:12:50 10° N 03:17:05 75° WNW 03:18:40 37° SSW visible
07 Jul ? 01:48:51 10° ENE 01:50:58 13° E 01:51:59 13° ESE visible
07 Jul ? 03:22:46 10° N 03:26:57 58° WNW 03:28:39 33° SW visible
